Other Public Products
Issued by NWS Grand Forks, ND

Home | Current Version | Previous Version | Text Only | Print | Product List | Glossary Off
Versions: 1 2 3 4 5 6 7 8 9 10 11 12 13 14 15 16 17 18 19 20 21 22 23 24 25 26 27 28 29 30 31 32 33 34 35 36 37 38 39 40 41 42 43 44 45 46 47 48 49 50

000
FPUS83 KFGF 160310
OPUFGF
PRAIRIE TO PINES WEATHER ROUNDUP
NATIONAL WEATHER SERVICE EASTERN NORTH DAKOTA/GRAND FORKS ND
900 PM CST FRI DEC 15 2017

 **SATELLITE DATA USED TO AUGMENT SKY COVER AT AUTOMATED STATIONS**
 *****  WEATHER ACROSS EASTERN NORTH DAKOTA  *****

CITY           SKY/WX    TMP DP  RH WIND       PRES   REMARKS
GRAND FORKS    LGT SNOW  22  21  96 E10       29.62F FOG     WCI  11
GRND FORKS AFB LGT SNOW  23  21  93 SE9       29.61S FOG     WCI  13
GRND FORKS NWS   N/A     21 N/A N/A E14         N/A  WCI   8
BUXTON         NOT AVBL
DEVILS LAKE    CLOUDY    26  25  96 SE10      29.53F WCI  16
FARGO          CLOUDY    29  28  96 SE10      29.59S WCI  20
WAHPETON ARPT  FAIR      30  28  93 SE9       29.58F WCI  22
$$

 *****  WEATHER ACROSS CENTRAL AND WESTERN NORTH DAKOTA  *****

CITY           SKY/WX    TMP DP  RH WIND       PRES   REMARKS
JAMESTOWN      CLOUDY    32  30  92 S6        29.51F
BISMARCK       MOCLDY    41  26  55 W9        29.57R
MINOT          CLOUDY    42  32  67 NW12      29.51S
MINOT AFB      DRIZZLE   40  32  75 NW9       29.50S
GARRISON         N/A     41  27  57 W12       29.54R
WILLISTON      MOCLDY    41  32  70 W8        29.60R
DICKINSON      FAIR      34  22  61 W9        29.58R
HETTINGER      FAIR      31  19  61 NW7       29.62S WCI  24
$$

 *****  OTHER OBSERVATIONS NORTHEAST NORTH DAKOTA  *****

CITY           SKY/WX    TMP DP  RH WIND       PRES   REMARKS
WALHALLA       FAIR      18  18 100 SE16      29.64S FOG     WCI   3
LANGDON        LGT SNOW  21  21 100 E17       29.57S WCI   7
CAVALIER       CLOUDY    18  16  93 E10       29.65S FOG     WCI   6
GRAFTON        CLOUDY    19  18  93 E15       29.66S FOG     WCI   5
CANDO          MOCLDY    27  27 100 E12       29.55F FOG     WCI  16
FORT TOTTEN      N/A     28  28  98 SE6       29.95S WCI  22
ROLLA          CLOUDY    27  27 100 SE12      29.50F WCI  16
RUGBY          FAIR      28  28 100 E7        29.50F WCI  21
 ***** THE ABOVE OBSERVATIONS ARE NON NWS ARE NOT QUALITY
        CONTROLLED AND MAY MIS-REPORT RAIN FOR SNOW...
$$

 *****  OTHER OBSERVATIONS SOUTHEAST NORTH DAKOTA *****

CITY           SKY/WX    TMP DP  RH WIND       PRES   REMARKS
COOPERSTOWN    CLOUDY    27  27 100 SE10      29.55F WCI  17
VALLEY CITY    CLOUDY    28  28 100 SE6       29.56S WCI  22
OAKES            N/A     32  32 100 S6        29.55S
GWINNER          N/A     32  30  93 CALM      29.55F
SHEYENNE NWR     N/A     30  30 100 SE7       29.95S WCI  23
BUFFALO        NOT AVBL
WYNDMERE       NOT AVBL
 ***** THE ABOVE OBSERVATIONS ARE NON NWS ARE NOT QUALITY
       CONTROLLED AND MAY MIS-REPORT RAIN FOR SNOW...
$$

  *****  WEATHER ACROSS NORTHERN MINNESOTA  *****

CITY           SKY/WX    TMP DP  RH WIND       PRES   REMARKS
FLAG ISLAND    CLOUDY     5   1  85 E8        29.75S WCI  -8
WARROAD        LGT SNOW  10   7  85 E12       29.72F WCI  -4
ROSEAU         LGT SNOW  12   9  85 E10       29.71F WCI  -1
HALLOCK        LGT SNOW  18  14  86 E15       29.66F WCI   3
THF RVR FALLS  LGT SNOW  16  13  88 E12       29.65F FOG     WCI   3
HALSTAD        NOT AVBL
FOSSTON        MIX PCPN  18  14  86 E7        29.64F WCI   8
BAUDETTE       CLOUDY     9   5  84 E10       29.72F WCI  -5
WASKISH        CLOUDY    12   9  85 E5        29.71F WCI   4
CROOKSTON      LGT SNOW  21  19  93 E10       29.64F WCI  10
$$
  *****  WEATHER ACROSS CENTRAL AND WEST MINNESOTA  *****

CITY           SKY/WX    TMP DP  RH WIND       PRES   REMARKS
BEMIDJI        LGT SNOW  15  12  90 E7        29.67S WCI   5
PARK RAPIDS    LGT SNOW  18  15  88 E5        29.64F FOG     WCI  11
WADENA         MIX PCPN  21  19  93 E7        29.63F WCI  13
DETROIT LAKES  LGT SNOW  23  23 100 SE8       29.63S WCI  14
MOORHEAD       MOCLDY    28  27  93 SE7       29.60F WCI  21
FERGUS FALLS   FAIR      28  28 100 SE9       29.62F WCI  20
ELBOW LAKE     MOCLDY    29  28  96 SE9       29.60F WCI  21
MORRIS MN      FAIR      30  28  93 SE13      29.59F WCI  20
STAPLES        MIX PCPN  19  18  93 E3        29.65F
WHEATON        FAIR      30  28  93 SE9       29.61F WCI  22
$$
  *****  WEATHER ELSEWHERE ACROSS MINNESOTA  *****

CITY           SKY/WX    TMP DP  RH WIND       PRES   REMARKS
DULUTH         FLURRIES  13   7  77 SE3       29.72S
INTRNTL FALLS  FAIR       5   0  79 E5        29.76S WCI  -4
ELY            FAIR      -2  -8  78 CALM      29.75S
CLOQUET        CLOUDY    14   7  73 CALM      29.72F
BRAINERD       LGT SNOW  20  17  88 CALM      29.69F FOG
HIBBING        CLOUDY    11   4  73 E5        29.73S WCI   3
ALEXANDRIA     CLOUDY    27  26  96 SE10      29.63F WCI  17
SAINT CLOUD    LGT SNOW  22  21  96 SE3       29.70F FOG
MINNEAPOLIS    LGT SNOW  27  26  96 SE7       29.73F FOG     WCI  19
$$

  *****  WEATHER ACROSS SOUTH DAKOTA  *****

CITY           SKY/WX    TMP DP  RH WIND       PRES   REMARKS
SIOUX FALLS    CLOUDY    39  28  64 SW6       29.63F
BROOKINGS      FAIR      34  26  72 SW7       29.61S
WATERTOWN      MOCLDY    32  28  85 S8        29.58F WCI  25
HURON          FAIR      35  28  75 S6        29.59F
SISSETON         N/A     34  31  88 S7        29.56F
ABERDEEN       FAIR      32  25  75 S7        29.56F
MITCHELL       FAIR      43  30  60 SW9       29.63S
PIERRE         FAIR      41  24  51 W12       29.61R
MOBRIDGE       FAIR      36  24  62 NW8       29.56R
RAPID CITY     FAIR      40  15  36 NE3       29.67S
$$

  *****  SOME WEATHER IN NEARBY STATES *****

CITY           SKY/WX    TMP DP  RH WIND       PRES   REMARKS
GLASGOW MT     CLOUDY    40  31  70 N14       29.68R
GREAT FALLS MT MOCLDY    39  23  52 N13       29.82R
CHEYENNE WY    FAIR      47   0  14 W12G24    29.85F
SCOTTSBLUFF NE FAIR      50  10  20 W16       29.77F
OMAHA NE       FAIR      36  23  59 S9        29.78F
DES MOINES IA  FAIR      40  23  50 SW13      29.80F
DAVENPORT IA   CLOUDY    36  21  54 SW13      29.89F
CHICAGO IL     CLOUDY    34  21  59 SW9       29.89F
EAU CLAIRE WI  LGT SNOW  21  19  92 CALM      29.76F FOG
LA CROSSE WI   CLOUDY    31  28  89 SE6       29.79F
$$

  *****  SOME NATIONAL WEATHER *****

CITY           SKY/WX    TMP DP  RH WIND       PRES   REMARKS
LA GUARDIA NY  FAIR      26  18  71 W13       29.92R WCI  15
RALEIGH NC     FAIR      33  26  75 W3        30.08R
ATLANTA GA     MOCLDY    33  25  72 NW8       30.19R
NEW ORLEANS LA CLOUDY    48  36  63 NE6       30.27R
OKLAHOMA CITY  FAIR      33  21  61 S10       30.09F WCI  25
ALBUQUERQUE NM FAIR      36  12  37 CALM      30.13F
SALT LAKE CITY CLOUDY    32  27  81 S3        30.03F
LOS ANGELES CA FAIR      65  39  38 W5        29.98F
BOISE ID       CLOUDY    28  22  78 NW7       30.13F WCI  21
SEATTLE WA     CLOUDY    42  41  96 S5        30.22R FOG
$$

*** WEATHER ACROSS MANITOBA...SASKATCHEWAN AND ONTARIO ***
                ***ONTARIO***

CITY           SKY/WX    TMP DP  RH WIND       PRES   REMARKS
GERALDTON      CLEAR    -17 -22  76 N5        29.83S WCI -29
THUNDER BAY    CLEAR     -6  -9  84 CALM      29.85S
SIOUX LOOKOUT  FLURRIES -11 -17  77 NE3       29.82S
TORONTO        PTCLDY    23  16  74 W17G24    29.75R WCI   9
BIG TROUT LK   CLOUDY   -11 -15  84 W6        29.90S WCI -25
PICKLE LAKE    NOT AVBL
DRYDEN         PTCLDY   -11 -15  84 NE12      29.79R WCI -31
KENORA         CLOUDY    -6  -9  84 E10       29.76S WCI -23
$$
                *** MANITOBA***

CITY           SKY/WX    TMP DP  RH WIND       PRES   REMARKS
BRANDON        FLURRIES  16  14  93 E16       29.57R WCI   0
DAUPHIN        LGT SNOW  10   9  92 SE15G23   29.61R WCI  -6
ISLAND LAKE    CLEAR    -17 -22  76 SE5       29.89S WCI -29
PILOT MOUND      N/A     19  16  86 E14         N/A  WCI   6
THE PAS        LGT SNOW   1  -4  78 E13       29.65F VSB 1   WCI -16
THOMPSON       MOCLDY   -15 -22  70 VRB2      29.85S
WINNIPEG       LGT SNOW  12   9  85 E12       29.70F WCI  -2
LYNN LAKE      CLOUDY   -15 -20  76 E9        29.72S WCI -33
CHURCHILL      LGT SNOW -15 -20  76 W7        29.96F VSB 5/8 WCI -31
GILLAM         CLEAR    -24 -29  76 CALM      29.93R
$$
                ***SASKATCHEWAN***

CITY           SKY/WX    TMP DP  RH WIND       PRES   REMARKS
ESTEVAN        LGT RAIN  37  34  87 W10       29.54R
KINDERSLEY     PTCLDY    28  23  80 NW12G20   29.69R WCI  18
LLOYDMINSTER   CLEAR     32  25  74 NW16G23   29.64R WCI  21
PRINCE ALBERT  FLURRIES  19  18  93 NE5       29.53R WCI  13
REGINA         CLOUDY    36  30  80 NW17      29.56R
YORKTON        FLURRIES  19  19 100 SE9       29.50R WC


USA.gov is the U.S. government's official web portal to all federal, state and local government web resources and services.